TimeEST,TemperatureF,Dew PointF,Humidity,Sea Level PressureIn,VisibilityMPH,Wind Direction,Wind SpeedMPH,Gust SpeedMPH,PrecipitationIn,Events,Conditions,WindDirDegrees,DateUTC
12:53 AM,44.1,43.0,96,29.59,10.0,West,5.8,-,0.08,,Overcast,260,2013-02-20 05:53:00
1:15 AM,42.8,42.8,100,29.58,10.0,WSW,5.8,-,0.03,,Overcast,250,2013-02-20 06:15:00
1:30 AM,42.8,42.8,100,29.57,10.0,WSW,4.6,-,0.04,,Overcast,250,2013-02-20 06:30:00
1:53 AM,42.1,41.0,96,29.59,10.0,SW,6.9,-,0.07,,Overcast,230,2013-02-20 06:53:00
2:06 AM,42.8,41.0,93,29.58,10.0,West,13.8,21.9,0.02,,Overcast,260,2013-02-20 07:06:00
2:15 AM,42.8,39.2,87,29.58,10.0,West,15.0,21.9,0.03,,Overcast,270,2013-02-20 07:15:00
2:29 AM,41.0,37.4,87,29.58,10.0,West,12.7,19.6,0.04,,Mostly Cloudy,260,2013-02-20 07:29:00
2:53 AM,39.9,37.0,89,29.58,10.0,West,9.2,21.9,0.07,,Clear,260,2013-02-20 07:53:00
3:53 AM,37.9,34.0,86,29.59,10.0,West,11.5,20.7,0.06,,Scattered Clouds,260,2013-02-20 08:53:00
4:36 AM,37.4,32.0,81,29.59,10.0,West,13.8,20.7,0.05,,Mostly Cloudy,260,2013-02-20 09:36:00
4:53 AM,37.0,32.0,82,29.60,10.0,West,12.7,20.7,0.06,,Overcast,260,2013-02-20 09:53:00
5:15 AM,37.4,32.0,81,29.60,10.0,West,11.5,19.6,0.02,,Overcast,260,2013-02-20 10:15:00
5:53 AM,37.0,33.1,86,29.62,10.0,WNW,8.1,20.7,0.06,,Overcast,300,2013-02-20 10:53:00
6:53 AM,35.1,26.1,70,29.65,10.0,WNW,11.5,21.9,0.05,,Overcast,290,2013-02-20 11:53:00
8:53 AM,34.0,21.0,59,29.69,10.0,West,12.7,23.0,0.04,,Overcast,280,2013-02-20 13:53:00
9:53 AM,36.0,19.0,50,29.69,10.0,West,17.3,29.9,0.03,,Overcast,280,2013-02-20 14:53:00
11:53 AM,37.0,16.0,42,29.68,10.0,West,18.4,25.3,0.01,,Clear,280,2013-02-20 16:53:00
12:53 PM,36.0,14.0,41,29.67,10.0,West,15.0,31.1,N/A,,Partly Cloudy,280,2013-02-20 17:53:00
1:53 PM,36.0,12.9,39,29.66,10.0,West,15.0,25.3,N/A,,Clear,280,2013-02-20 18:53:00
2:53 PM,35.1,12.9,40,29.67,10.0,WNW,17.3,25.3,N/A,,Mostly Cloudy,290,2013-02-20 19:53:00
3:53 PM,34.0,12.0,40,29.68,10.0,West,18.4,28.8,N/A,,Mostly Cloudy,280,2013-02-20 20:53:00
4:53 PM,33.1,12.0,42,29.70,10.0,West,13.8,21.9,N/A,,Scattered Clouds,270,2013-02-20 21:53:00
5:53 PM,30.0,12.9,49,29.72,10.0,WNW,18.4,28.8,N/A,,Clear,290,2013-02-20 22:53:00
6:53 PM,30.0,10.9,45,29.75,10.0,WNW,18.4,26.5,N/A,,Clear,300,2013-02-20 23:53:00
7:53 PM,30.0,10.0,43,29.75,10.0,WNW,19.6,26.5,N/A,,Overcast,290,2013-02-21 00:53:00
8:53 PM,28.9,9.0,43,29.78,10.0,WNW,13.8,28.8,N/A,,Clear,290,2013-02-21 01:53:00
9:53 PM,28.0,10.0,47,29.79,10.0,WNW,17.3,26.5,N/A,,Partly Cloudy,290,2013-02-21 02:53:00
10:53 PM,28.0,10.9,49,29.80,10.0,WNW,12.7,25.3,N/A,,Mostly Cloudy,300,2013-02-21 03:53:00
11:53 PM,27.0,12.0,53,29.81,10.0,WNW,18.4,28.8,N/A,,Clear,290,2013-02-21 04:53:00